User: anonymous
Location: Unspecified
(0.0000°N, 0.0000°E)
Time: 18:27:23
(UTC+00:00)
Language:

SR - Orbit

View from above orbital plane
View from above orbital plane
View from above satellite
View from above satellite

Ground track
Ground track

The orbit data is extracted from the following two-line orbital elements,

1 00046U 60007B   14208.19847304  .00000124  00000-0  47996-4 0  7011
2 00046 066.6916 098.4366 0221585 294.0232 063.7824 14.47769755827302
Epoch (UTC): 27 July 2014 04:45:48
Eccentricity: 0.0221585
inclination: 66.6916°
perigee height: 575 km
apogee height: 890 km
right ascension of ascending node: 98.4366°
argument of perigee: 294.0232°
revolutions per day: 14.47769755
mean anomaly at epoch: 63.7824°
orbit number at epoch: 82730

The dashed part of the orbit path shows where the satellite is in the earth's shadow,  

DLR